User: anonymous   Login
Location: Carri�res
(48.9069°N, 2.1792°E)
Time: 19:46:27
(UTC+00:00)
Language:

NOSS 3-1 (C) - Orbit

View from above orbital plane
View from above orbital plane
View from above satellite
View from above satellite

Ground track
Ground track

The orbit data is extracted from the following two-line orbital elements,

1 26907U 01040C   21108.83616154 0.00000024  00000-0  20697-4 0    02
2 26907  63.4042  41.8836 0497554   2.2799 357.7201 13.41330975    09
Epoch (UTC): 18 April 2021 20:04:04
Eccentricity: 0.0497554
inclination: 63.4042°
perigee height: 732 km
apogee height: 1476 km
right ascension of ascending node: 41.8836°
argument of perigee: 2.2799°
revolutions per day: 13.41330975
mean anomaly at epoch: 357.7201°
orbit number at epoch: 0

The dashed part of the orbit path shows where the satellite is in the earth's shadow,  

DLR